Lakeland Region, FL

3:00 AM EDT on October 18, 2017 (GMT -0400)
Lakeland Linder Regional

Weather History for KLAL - February, 2014

Change the Weather History Date:

Tuesday, February 25, 2014

  Actual Average Record
Temperature  
Mean Temperature 70 °F -  
Max Temperature 80 °F 73 °F 86 °F (2001)
Min Temperature 59 °F 54 °F 32 °F (1989)
Cooling Degree Days 5    
Growing Degree Days 20 (Base 50)    
Moisture  
Dew Point 60 °F    
Average Humidity 80    
Maximum Humidity 100    
Minimum Humidity 39    
Precipitation  
Precipitation 0.00 in - - ()
Sea Level Pressure  
Sea Level Pressure 30.02 in    
Wind  
Wind Speed 2 mph (NW)    
Max Wind Speed 12 mph    
Max Gust Speed -    
Visibility 10 miles    
Events      
Averages and records for this station are not official NWS values.
T = Trace of Precipitation, MM = Missing Value Source: NWS Daily Summary

Daily Weather History Graph

Daily Weather History Graph

Search for Another Location

Airport or City:

Trip Planner

Search our weather history database for the weather conditions in past years. The results will help you decide how hot, cold, wet, or windy it might be!

Date:

Astronomy

Feb. 25, 2014 Rise Set
Actual Time 6:56 AM EST 6:25 PM EST
Civil Twilight 6:33 AM EST 6:49 PM EST
Nautical Twilight 6:05 AM EST 7:16 PM EST
Astronomical Twilight 5:38 AM EST 7:44 PM EST
Moon 3:36 AM EST (2/25) 2:43 PM EST (2/25)
Length of Visible Light 12h 16m
Length of Day
11h 29m
Waning Crescent, 18% of the Moon is Illuminated
Feb 25
Waning Crescent
Mar 1
New
Mar 8
First Quarter
Mar 16
Full
Mar 23
Last Quarter

Hourly Weather History & Observations

Time (EST) Temp. Heat Index Dew Point Humidity Pressure Visibility Wind Dir Wind Speed Gust Speed Precip Events Conditions
12:15 AM 66.2 °F - 62.6 °F 88% 30.07 in 10.0 mi Calm Calm - N/A   Clear
12:35 AM 66.2 °F - 62.6 °F 88% 30.06 in 10.0 mi East 3.5 mph - N/A   Clear
12:55 AM 64.4 °F - 62.6 °F 94% 30.05 in 10.0 mi SE 3.5 mph - N/A   Clear
1:15 AM 64.4 °F - 62.6 °F 94% 30.04 in 10.0 mi East 3.5 mph - N/A   Clear
1:35 AM 64.4 °F - 62.6 °F 94% 30.04 in 10.0 mi ENE 3.5 mph - N/A   Mostly Cloudy
1:55 AM 64.4 °F - 62.6 °F 94% 30.04 in 10.0 mi Calm Calm - N/A   Overcast
2:15 AM 64.4 °F - 62.6 °F 94% 30.04 in 10.0 mi East 3.5 mph - N/A   Overcast
2:30 AM 64.4 °F - 62.6 °F 94% 30.04 in 10.0 mi Calm Calm - N/A   Overcast
2:55 AM 64.4 °F - 62.6 °F 94% 30.04 in 10.0 mi Calm Calm - N/A   Overcast
3:15 AM 64.4 °F - 62.6 °F 94% 30.03 in 10.0 mi Calm Calm - N/A   Overcast
4:55 AM 62.6 °F - 62.6 °F 100% 30.01 in 7.0 mi Calm Calm - N/A   Scattered Clouds
5:15 AM 60.8 °F - 60.8 °F 100% 30.02 in 7.0 mi Calm Calm - N/A   Clear
5:35 AM 60.8 °F - 60.8 °F 100% 30.02 in 7.0 mi Calm Calm - N/A   Clear
5:55 AM 62.6 °F - 62.6 °F 100% 30.03 in 10.0 mi NNE 4.6 mph - N/A   Partly Cloudy
6:55 AM 60.8 °F - 60.8 °F 100% 30.05 in 10.0 mi Calm Calm - N/A   Mostly Cloudy
7:55 AM 60.8 °F - 60.8 °F 100% 30.06 in 10.0 mi Calm Calm - N/A   Mostly Cloudy
8:52 AM 66.2 °F - 62.6 °F 88% 30.08 in 10.0 mi Calm Calm - N/A   Overcast
9:50 AM 69.8 °F - 60.8 °F 73% 30.07 in 10.0 mi Calm Calm - N/A   Overcast
10:45 AM 71.6 °F - 60.8 °F 69% 30.08 in 10.0 mi Calm Calm - N/A   Overcast
11:45 AM 75.2 °F - 62.6 °F 65% 30.05 in 10.0 mi Calm Calm - N/A   Overcast
12:51 PM 78.8 °F - 59.0 °F 51% 30.03 in 15.0 mi West 6.9 mph - N/A   Mostly Cloudy
1:51 PM 78.8 °F - 57.2 °F 47% 29.99 in 15.0 mi NW 5.8 mph - N/A   Mostly Cloudy
2:54 PM 80.6 °F 80.8 °F 57.2 °F 45% 29.97 in 15.0 mi NW 11.5 mph - N/A   Mostly Cloudy
3:50 PM 80.6 °F 80.5 °F 55.4 °F 42% 29.95 in 15.0 mi WNW 10.4 mph - N/A   Scattered Clouds
4:50 PM 80.6 °F 80.3 °F 53.6 °F 39% 29.96 in 15.0 mi WNW 9.2 mph - N/A   Partly Cloudy
5:50 PM 77.0 °F - 51.8 °F 41% 29.97 in 15.0 mi NW 9.2 mph - N/A   Partly Cloudy
6:56 PM 71.6 °F - 53.6 °F 53% 29.98 in 15.0 mi WNW 5.8 mph - N/A   Partly Cloudy
7:56 PM 69.8 °F - 53.6 °F 56% 30.00 in 15.0 mi WNW 5.8 mph - N/A   Partly Cloudy
8:50 PM 66.2 °F - 55.4 °F 68% 30.01 in 12.0 mi WNW 5.8 mph - N/A   Clear
9:50 PM 64.4 °F - 57.2 °F 77% 30.01 in 12.0 mi West 3.5 mph - N/A   Clear
9:55 PM 62.6 °F - 57.2 °F 82% 30.01 in 10.0 mi West 4.6 mph - N/A   Clear
10:15 PM 62.6 °F - 57.2 °F 82% 30.01 in 10.0 mi WNW 4.6 mph - N/A   Clear
10:35 PM 62.6 °F - 59.0 °F 88% 30.01 in 7.0 mi Calm Calm - N/A   Clear
10:55 PM 60.8 °F - 59.0 °F 94% 30.01 in 7.0 mi NNW 3.5 mph - N/A   Clear
11:15 PM 60.8 °F - 59.0 °F 94% 30.01 in 7.0 mi Calm Calm - N/A   Clear
11:35 PM 60.8 °F - 59.0 °F 94% 30.00 in 7.0 mi Calm Calm - N/A   Clear
11:55 PM 59.0 °F - 59.0 °F 100% 29.99 in 4.0 mi Calm Calm - N/A   Clear